Ephrata, WA
on Sunday, February 24, 2013

Sunday
Previous Day Next Day
Daily Summary
 ActualAverageRecord
Temperature
Mean Temperature °F 36°F  
Max Temperature 45°F 46°F 58°F (1968)
Min Temperature 25°F 27°F 6°F (2011)
Degree Days
Heating Degree Days 30 29  
Month to date heating degree days 693 753  
Since 1 July heating degree days 4129 4461  
Cooling Degree Days 0 0  
Month to date cooling degree days 0 0  
Year to date cooling degree days 0 0  
Moisture
Dew Point 25°F   
Average Humidity 67    
Maximum Humidity 85    
Minimum Humidity 48    
Precipitation
Precipitation 0.00 in 0.03 in 0.31 in (1984)
Month to date precipitation T 0.63  
Year to date precipitation 0.19 1.54  
Wind
Wind Speed 5 mph   
Max Wind Speed 16 mph   
Max Gust Speed 20 mph   
Visibility 10 miles   
Events     

Key: T is trace of precipitation, MM is missing value
Source: NWS Daily Summary
Time(PST)TemperatureDew PointHumidity Pressure Visibility Wind DirectionWind SpeedGust SpeedPrecipitationEvents Conditions
12:53 AM 34.0°F 19.9°F 56% 30.26 in 10.0 miles WSW 4.6 mph - N/A   Clear
1:53 AM 37.9°F 19.9°F 48% 30.26 in 10.0 miles WSW 3.5 mph - N/A   Clear
2:53 AM 32.0°F 19.9°F 61% 30.27 in 10.0 miles SSE 5.8 mph - N/A   Clear
3:53 AM 28.0°F 21.0°F 75% 30.28 in 10.0 miles South 9.2 mph - N/A   Scattered Clouds
4:53 AM 26.1°F 21.9°F 84% 30.29 in 10.0 miles South 5.8 mph - N/A   Clear
5:53 AM 27.0°F 23.0°F 85% 30.29 in 10.0 miles SSW 9.2 mph - N/A   Mostly Cloudy
6:53 AM 30.0°F 24.1°F 79% 30.28 in 10.0 miles SSE 3.5 mph - N/A   Overcast
7:53 AM 32.0°F 25.0°F 75% 30.29 in 10.0 miles SE 5.8 mph - N/A   Overcast
8:53 AM 35.1°F 27.0°F 72% 30.30 in 10.0 miles NNE 3.5 mph - N/A   Overcast
9:53 AM 37.9°F 28.0°F 68% 30.31 in 10.0 miles NNE 4.6 mph - N/A   Clear
10:53 AM 39.0°F 28.9°F 67% 30.30 in 10.0 miles Calm Calm - N/A   Mostly Cloudy
11:53 AM 39.9°F 28.9°F 65% 30.29 in 10.0 miles Calm Calm - N/A   Scattered Clouds
12:53 PM 41.0°F 28.0°F 60% 30.27 in 10.0 miles ENE 3.5 mph - N/A   Overcast
1:53 PM 42.1°F 28.0°F 58% 30.24 in 10.0 miles SSE 13.8 mph - N/A   Clear
2:53 PM 42.1°F 28.0°F 58% 30.24 in 10.0 miles SSE 12.7 mph - N/A   Clear
3:53 PM 44.1°F 28.0°F 53% 30.23 in 10.0 miles South 6.9 mph - N/A   Clear
4:53 PM 43.0°F 26.1°F 51% 30.21 in 10.0 miles SSE 11.5 mph - N/A   Clear
5:53 PM 35.1°F 26.1°F 70% 30.21 in 10.0 miles SSE 5.8 mph - N/A   Clear
6:53 PM 34.0°F 26.1°F 73% 30.19 in 10.0 miles Calm Calm - N/A   Clear
7:53 PM 33.1°F 26.1°F 75% 30.15 in 10.0 miles Calm Calm - N/A   Clear
8:53 PM 34.0°F 26.1°F 73% 30.12 in 10.0 miles Calm Calm - N/A   Clear
9:53 PM 30.0°F 25.0°F 82% 30.09 in 10.0 miles North 3.5 mph - N/A   Clear
10:53 PM 30.9°F 26.1°F 82% 30.07 in 10.0 miles NNW 5.8 mph - N/A   Overcast
11:53 PM 30.0°F 27.0°F 88% 30.04 in 10.0 miles NNE 6.9 mph - N/A   Partly Cloudy
Moon Phase
Feb. 24 Feb. 25 Mar. 04 Mar. 11 Mar. 19
Sunrise:06:46 AM (PST) Moon Rise:04:52 PM (PST)2/24
Sunset:05:36 PM (PST) Moon Set:05:48 AM (PST)2/24

Copyright © 2014 The Weather Underground, Inc.